Weather in Clervaux

Luxembourg     50°03′17″N   6°01′50″E
temp.,
°C
wind,
m/s
gust,
m/s
humid.,
%
clouds,
%
prec.,
mm/h
press.,
hPa
HPBL,
m
10 august, wed
wed1023:00+18nne512544 0.0 1025248
02:00+15ne311672 0.0 1025195
05:00+14ne35691 0.0 102564
08:00+18ene385029 0.0 1025212
11:00+26ene573179 0.0 10241501
14:00+28e56255 0.0 10232138
17:00+29ene55235 0.0 10212420
20:00+26ene57284 0.0 1021592
11 august, thu
thu1123:00+18ne23484 0.0 102226
02:00+16ne22495 0.0 102217
05:00+15ne22520 0.0 102216
08:00+18ene12430 0.0 102279
11:00+27ese46260 0.0 10211714
14:00+29e56215 0.0 10202284
17:00+30e66185 0.0 10182428
20:00+27e582369 0.0 1018492
12 august, fri
fri1223:00+19ne224067 0.0 101912
02:00+17ne224648 0.0 101911
05:00+16ne22485 0.0 101911
08:00+20ene123930 0.0 101975
11:00+28e452246 0.0 10181803
14:00+30e66195 0.0 10162285
17:00+30e55193 0.0 10152529
20:00+27e582397 0.0 1016515
13 august, sat
sat1323:00+19ene383979 0.0 1017120
02:00+16e114567 0.0 101711
05:00+14ene224930 0.0 101811
08:00+18e264224 0.0 1018173
11:00+25ese56280 0.0 10181582
14:00+28e55234 0.0 10172218
17:00+30e44205 0.0 10162532
20:00+27e462451 0.0 1016313
14 august, sun
sun1423:00+19ene1139100 0.0 101711
02:00+17nne1143100 0.0 101611
05:00+16e224574 0.0 101513
08:00+20nne1239100 0.0 101550
11:00+28ese44238 0.0 10142118
14:00+31ese44195 0.0 10122837
17:00+32se5419100 0.0 10103454
20:00+29se472297 0.0 1009287